User: anonymous   Login
Location: Unspecified
(0.0000°N, 0.0000°E)
Time: 07:16:38
(UTC+00:00)
Language:

LES 2 - Orbit

View from above orbital plane
View from above orbital plane
View from above satellite
View from above satellite

Ground track
Ground track

The orbit data is extracted from the following two-line orbital elements,

1 01360U 65034B   18014.37909301 -.00000060  00000-0 -35539-1 0  9998
2 01360  32.2037 351.1894 3965080 234.1332  82.3347  4.64824408894951
Epoch (UTC): 14 January 2018 09:05:53
Eccentricity: 0.3965080
inclination: 32.2037°
perigee height: 2774 km
apogee height: 14801 km
right ascension of ascending node: 351.1894°
argument of perigee: 234.1332°
revolutions per day: 4.64824408
mean anomaly at epoch: 82.3347°
orbit number at epoch: 89495

The dashed part of the orbit path shows where the satellite is in the earth's shadow,  

DLR